Orbital Elements at Epoch 2459200.5 (2020-Dec-17.0) TDB
Reference: JPL 18 (heliocentric ecliptic J2000)
Element | Value | Uncertainty (1-sigma) | Units |
e | .2184484800833874 | 2.7649e-08 | |
a | 2.271248526392553 | 8.0741e-09 | au |
q | 1.775097737910466 | 6.4117e-08 | au |
i | 9.828639457127947 | 3.2639e-06 | deg |
node | 161.2521198743464 | 2.2188e-05 | deg |
peri | 147.879574757764 | 2.392e-05 | deg |
M | 103.7573641339166 | 9.1377e-06 | deg |
tp | 2458840.160522680951 (2019-Dec-22.66052268) | 3.0992e-05 | TDB |
period | 1250.245829948309 3.42 | 6.6668e-06 1.825e-08 | d yr |
n | .2879433719166125 | 1.5354e-09 | deg/d |
Q | 2.767399314874639 | 9.8379e-09 | au |
|
| | Orbit Determination Parameters
Additional Information
|